Time,TemperatureF,DewpointF,PressureIn,WindDirection,WindDirectionDegrees,WindSpeedMPH,WindSpeedGustMPH,Humidity,HourlyPrecipIn,Conditions,Clouds,dailyrainin,SolarRadiationWatts/m^2,SoftwareType,DateUTC
2013-03-25 00:01:00,48.7,43.0,29.99,West,281,0.0,0.0,82,0.00,,,0.00,0,weatherlink.com 1.10,2013-03-25 07:01:00,
2013-03-25 00:16:00,48.5,43.0,29.99,West,264,0.0,0.0,82,0.00,,,0.00,0,weatherlink.com 1.10,2013-03-25 07:16:00,
2013-03-25 00:31:00,48.3,43.0,29.99,West,264,0.0,0.0,83,0.00,,,0.00,0,weatherlink.com 1.10,2013-03-25 07:31:00,
2013-03-25 00:46:00,48.1,44.0,29.99,West,281,0.0,1.0,84,0.00,,,0.00,0,weatherlink.com 1.10,2013-03-25 07:46:00,
2013-03-25 01:01:00,47.8,43.0,29.99,West,281,0.0,0.0,84,0.00,,,0.00,0,weatherlink.com 1.10,2013-03-25 08:01:00,
2013-03-25 01:16:00,47.6,43.0,29.99,WNW,286,0.0,1.0,85,0.00,,,0.00,0,weatherlink.com 1.10,2013-03-25 08:16:00,
2013-03-25 02:46:00,45.3,42.0,29.98,WNW,286,0.0,1.0,87,0.00,,,0.00,0,weatherlink.com 1.10,2013-03-25 09:46:00,
2013-03-25 03:01:00,45.0,42.0,29.98,WNW,286,0.0,0.0,88,0.00,,,0.00,0,weatherlink.com 1.10,2013-03-25 10:01:00,
2013-03-25 03:16:00,44.9,42.0,29.98,WNW,286,0.0,0.0,89,0.00,,,0.00,0,weatherlink.com 1.10,2013-03-25 10:16:00,
2013-03-25 03:46:00,44.7,42.0,29.98,WNW,286,0.0,1.0,91,0.00,,,0.00,0,weatherlink.com 1.10,2013-03-25 10:46:00,
2013-03-25 04:01:00,44.6,42.0,29.98,WNW,286,0.0,0.0,91,0.00,,,0.00,0,weatherlink.com 1.10,2013-03-25 11:01:00,
2013-03-25 04:16:00,44.3,42.0,29.97,WNW,286,0.0,0.0,91,0.00,,,0.00,0,weatherlink.com 1.10,2013-03-25 11:16:00,
2013-03-25 04:31:00,44.2,42.0,29.97,WNW,286,0.0,0.0,91,0.00,,,0.00,0,weatherlink.com 1.10,2013-03-25 11:31:00,
2013-03-25 04:46:00,44.0,42.0,29.98,WNW,286,0.0,0.0,92,0.00,,,0.00,0,weatherlink.com 1.10,2013-03-25 11:46:00,
2013-03-25 05:01:00,43.8,42.0,29.98,WNW,286,0.0,0.0,92,0.00,,,0.00,0,weatherlink.com 1.10,2013-03-25 12:01:00,
2013-03-25 05:16:00,43.6,42.0,29.97,WNW,286,0.0,0.0,92,0.00,,,0.00,0,weatherlink.com 1.10,2013-03-25 12:16:00,
2013-03-25 05:46:00,43.3,41.0,29.98,WNW,286,0.0,0.0,92,0.00,,,0.00,0,weatherlink.com 1.10,2013-03-25 12:46:00,
2013-03-25 06:16:00,43.1,41.0,29.98,WNW,286,0.0,0.0,93,0.00,,,0.00,0,weatherlink.com 1.10,2013-03-25 13:16:00,
2013-03-25 06:31:00,42.9,41.0,29.99,WNW,286,0.0,0.0,93,0.00,,,0.00,0,weatherlink.com 1.10,2013-03-25 13:31:00,
2013-03-25 06:46:00,42.9,41.0,29.99,WNW,286,0.0,0.0,93,0.00,,,0.00,0,weatherlink.com 1.10,2013-03-25 13:46:00,
2013-03-25 07:01:00,42.8,41.0,29.99,WNW,286,0.0,0.0,93,0.00,,,0.00,0,weatherlink.com 1.10,2013-03-25 14:01:00,
2013-03-25 07:16:00,42.6,41.0,29.99,WNW,286,0.0,0.0,93,0.00,,,0.00,9,weatherlink.com 1.10,2013-03-25 14:16:00,
2013-03-25 07:31:00,42.6,41.0,29.99,WNW,286,0.0,0.0,93,0.00,,,0.00,25,weatherlink.com 1.10,2013-03-25 14:31:00,
2013-03-25 07:46:00,42.8,41.0,29.99,WNW,286,0.0,1.0,94,0.00,,,0.00,49,weatherlink.com 1.10,2013-03-25 14:46:00,
2013-03-25 08:01:00,43.2,42.0,29.99,WNW,286,0.0,0.0,94,0.00,,,0.00,56,weatherlink.com 1.10,2013-03-25 15:01:00,
2013-03-25 08:16:00,44.1,43.0,29.99,WNW,286,0.0,1.0,95,0.00,,,0.00,77,weatherlink.com 1.10,2013-03-25 15:16:00,
2013-03-25 08:32:00,44.9,44.0,29.99,SSW,198,0.0,2.0,95,0.00,,,0.00,98,weatherlink.com 1.10,2013-03-25 15:32:00,
2013-03-25 08:47:00,45.5,44.0,30.00,SSW,198,0.0,1.0,95,0.00,,,0.00,107,weatherlink.com 1.10,2013-03-25 15:47:00,
2013-03-25 09:02:00,46.2,45.0,30.00,SSW,198,0.0,1.0,95,0.00,,,0.00,163,weatherlink.com 1.10,2013-03-25 16:02:00,
2013-03-25 09:32:00,48.3,47.0,30.00,SSW,203,0.0,1.0,94,0.00,,,0.00,197,weatherlink.com 1.10,2013-03-25 16:32:00,
2013-03-25 09:47:00,50.5,47.0,30.00,SSW,202,0.0,1.0,89,0.00,,,0.00,339,weatherlink.com 1.10,2013-03-25 16:47:00,
2013-03-25 10:02:00,51.7,47.0,30.00,East,82,0.0,2.0,83,0.00,,,0.00,417,weatherlink.com 1.10,2013-03-25 17:02:00,
2013-03-25 10:17:00,53.5,47.0,30.00,ENE,73,0.0,3.0,79,0.00,,,0.00,548,weatherlink.com 1.10,2013-03-25 17:17:00,
2013-03-25 10:32:00,54.2,46.0,30.00,West,270,4.0,5.0,75,0.00,,,0.00,469,weatherlink.com 1.10,2013-03-25 17:32:00,
2013-03-25 10:47:00,53.9,46.0,30.01,West,276,1.0,4.0,75,0.00,,,0.00,615,weatherlink.com 1.10,2013-03-25 17:47:00,
2013-03-25 11:02:00,54.9,46.0,30.00,West,271,1.0,3.0,73,0.00,,,0.00,462,weatherlink.com 1.10,2013-03-25 18:02:00,
2013-03-25 11:17:00,55.0,46.0,30.01,West,261,1.0,4.0,72,0.00,,,0.00,548,weatherlink.com 1.10,2013-03-25 18:17:00,
2013-03-25 11:32:00,55.3,46.0,30.00,NW,308,1.0,3.0,71,0.00,,,0.00,387,weatherlink.com 1.10,2013-03-25 18:32:00,
2013-03-25 11:47:00,55.7,46.0,30.00,North,5,1.0,3.0,70,0.00,,,0.00,352,weatherlink.com 1.10,2013-03-25 18:47:00,
2013-03-25 12:02:00,55.8,46.0,30.01,WSW,247,0.0,3.0,70,0.00,,,0.00,388,weatherlink.com 1.10,2013-03-25 19:02:00,
2013-03-25 12:17:00,56.0,46.0,30.01,NW,317,1.0,3.0,69,0.00,,,0.00,403,weatherlink.com 1.10,2013-03-25 19:17:00,
2013-03-25 12:32:00,55.9,45.0,30.00,West,263,0.0,3.0,67,0.00,,,0.00,633,weatherlink.com 1.10,2013-03-25 19:32:00,
2013-03-25 12:47:00,56.7,45.0,30.00,West,269,1.0,4.0,66,0.00,,,0.00,738,weatherlink.com 1.10,2013-03-25 19:47:00,
2013-03-25 13:02:00,57.1,45.0,30.00,WSW,243,0.0,3.0,65,0.00,,,0.00,320,weatherlink.com 1.10,2013-03-25 20:02:00,
2013-03-25 13:17:00,57.1,45.0,30.00,SW,225,1.0,5.0,65,0.00,,,0.00,357,weatherlink.com 1.10,2013-03-25 20:17:00,
2013-03-25 13:32:00,56.9,45.0,29.99,WSW,244,0.0,4.0,65,0.00,,,0.00,204,weatherlink.com 1.10,2013-03-25 20:32:00,
2013-03-25 13:47:00,57.4,45.0,29.99,WNW,284,1.0,6.0,63,0.00,,,0.00,301,weatherlink.com 1.10,2013-03-25 20:47:00,
2013-03-25 14:02:00,57.7,45.0,29.98,WSW,251,0.0,4.0,63,0.00,,,0.00,269,weatherlink.com 1.10,2013-03-25 21:02:00,
2013-03-25 14:17:00,57.9,45.0,29.98,West,276,2.0,4.0,62,0.00,,,0.00,241,weatherlink.com 1.10,2013-03-25 21:17:00,
2013-03-25 14:32:00,58.2,45.0,29.97,West,271,0.0,7.0,62,0.00,,,0.00,193,weatherlink.com 1.10,2013-03-25 21:32:00,
2013-03-25 14:47:00,58.4,46.0,29.97,West,275,0.0,5.0,63,0.00,,,0.00,258,weatherlink.com 1.10,2013-03-25 21:47:00,
2013-03-25 15:02:00,57.9,46.0,29.97,West,271,1.0,5.0,64,0.00,,,0.00,204,weatherlink.com 1.10,2013-03-25 22:02:00,
2013-03-25 15:17:00,56.7,45.0,29.96,West,269,2.0,7.0,66,0.00,,,0.00,100,weatherlink.com 1.10,2013-03-25 22:17:00,
2013-03-25 15:32:00,55.9,45.0,29.96,West,276,2.0,6.0,66,0.00,,,0.00,114,weatherlink.com 1.10,2013-03-25 22:32:00,
2013-03-25 15:47:00,55.3,44.0,29.96,WSW,243,1.0,5.0,67,0.00,,,0.00,141,weatherlink.com 1.10,2013-03-25 22:47:00,
2013-03-25 16:02:00,55.0,45.0,29.96,West,268,1.0,7.0,68,0.00,,,0.00,148,weatherlink.com 1.10,2013-03-25 23:02:00,
2013-03-25 16:17:00,54.8,44.0,29.96,WSW,241,0.0,3.0,68,0.00,,,0.00,167,weatherlink.com 1.10,2013-03-25 23:17:00,
2013-03-25 16:32:00,54.8,44.0,29.95,WSW,250,0.0,4.0,67,0.00,,,0.00,107,weatherlink.com 1.10,2013-03-25 23:32:00,
2013-03-25 16:47:00,54.9,44.0,29.95,WSW,240,3.0,4.0,67,0.00,,,0.00,58,weatherlink.com 1.10,2013-03-25 23:47:00,
2013-03-25 17:02:00,54.9,44.0,29.95,SW,214,0.0,3.0,67,0.00,,,0.00,32,weatherlink.com 1.10,2013-03-26 00:02:00,
2013-03-25 17:17:00,54.7,44.0,29.95,SW,221,0.0,3.0,68,0.00,,,0.00,128,weatherlink.com 1.10,2013-03-26 00:17:00,
2013-03-25 17:32:00,54.5,44.0,29.94,WSW,239,0.0,3.0,69,0.00,,,0.00,81,weatherlink.com 1.10,2013-03-26 00:32:00,
2013-03-25 17:47:00,54.0,44.0,29.95,NE,51,2.0,3.0,70,0.00,,,0.00,65,weatherlink.com 1.10,2013-03-26 00:47:00,
2013-03-25 18:02:00,53.4,44.0,29.95,ENE,61,0.0,2.0,71,0.00,,,0.00,63,weatherlink.com 1.10,2013-03-26 01:02:00,
2013-03-25 18:17:00,52.9,44.0,29.95,NE,42,0.0,1.0,71,0.00,,,0.00,53,weatherlink.com 1.10,2013-03-26 01:17:00,
2013-03-25 18:33:00,52.1,44.0,29.96,NW,311,0.0,2.0,74,0.00,,,0.00,33,weatherlink.com 1.10,2013-03-26 01:33:00,
2013-03-25 18:48:00,51.2,44.0,29.96,WNW,282,0.0,4.0,76,0.00,,,0.00,19,weatherlink.com 1.10,2013-03-26 01:48:00,
2013-03-25 19:03:00,50.1,44.0,29.96,WSW,250,2.0,5.0,79,0.00,,,0.00,5,weatherlink.com 1.10,2013-03-26 02:03:00,
2013-03-25 19:18:00,49.4,44.0,29.96,West,273,2.0,6.0,81,0.00,,,0.00,5,weatherlink.com 1.10,2013-03-26 02:18:00,
2013-03-25 19:33:00,48.7,43.0,29.96,West,261,2.0,6.0,82,0.00,,,0.00,0,weatherlink.com 1.10,2013-03-26 02:33:00,
2013-03-25 19:48:00,48.3,44.0,29.97,West,276,2.0,4.0,84,0.00,,,0.00,0,weatherlink.com 1.10,2013-03-26 02:48:00,
2013-03-25 20:03:00,48.2,44.0,29.97,WSW,243,0.0,3.0,84,0.00,,,0.00,0,weatherlink.com 1.10,2013-03-26 03:03:00,
2013-03-25 20:18:00,48.3,44.0,29.97,WSW,244,1.0,3.0,85,0.00,,,0.00,0,weatherlink.com 1.10,2013-03-26 03:18:00,
2013-03-25 20:33:00,48.4,44.0,29.96,WSW,258,2.0,4.0,85,0.00,,,0.00,0,weatherlink.com 1.10,2013-03-26 03:33:00,
2013-03-25 20:48:00,48.4,44.0,29.95,West,276,0.0,3.0,85,0.00,,,0.00,0,weatherlink.com 1.10,2013-03-26 03:48:00,
2013-03-25 21:03:00,48.3,44.0,29.94,West,276,0.0,3.0,84,0.00,,,0.00,0,weatherlink.com 1.10,2013-03-26 04:03:00,
2013-03-25 21:18:00,48.2,43.0,29.97,West,259,1.0,6.0,83,0.00,,,0.00,0,weatherlink.com 1.10,2013-03-26 04:18:00,
2013-03-25 21:33:00,48.2,44.0,29.98,NW,324,0.0,2.0,84,0.00,,,0.00,0,weatherlink.com 1.10,2013-03-26 04:33:00,
2013-03-25 21:48:00,48.1,44.0,29.98,WNW,284,0.0,3.0,84,0.00,,,0.00,0,weatherlink.com 1.10,2013-03-26 04:48:00,
2013-03-25 22:03:00,48.1,44.0,29.98,WNW,288,0.0,2.0,84,0.00,,,0.00,0,weatherlink.com 1.10,2013-03-26 05:03:00,
2013-03-25 22:18:00,48.0,43.0,29.98,WNW,289,0.0,3.0,84,0.00,,,0.00,0,weatherlink.com 1.10,2013-03-26 05:18:00,
2013-03-25 22:33:00,48.0,44.0,29.98,NW,306,1.0,3.0,85,0.00,,,0.00,0,weatherlink.com 1.10,2013-03-26 05:33:00,
2013-03-25 22:48:00,47.9,44.0,29.98,WSW,255,0.0,3.0,86,0.00,,,0.00,0,weatherlink.com 1.10,2013-03-26 05:48:00,
2013-03-25 23:03:00,47.7,43.0,29.99,SW,234,0.0,3.0,85,0.00,,,0.00,0,weatherlink.com 1.10,2013-03-26 06:03:00,
2013-03-25 23:18:00,47.6,44.0,29.99,WSW,254,0.0,5.0,86,0.00,,,0.00,0,weatherlink.com 1.10,2013-03-26 06:18:00,
2013-03-25 23:33:00,47.4,43.0,30.00,West,275,1.0,3.0,86,0.00,,,0.00,0,weatherlink.com 1.10,2013-03-26 06:33:00,
2013-03-25 23:48:00,47.3,43.0,30.00,West,275,1.0,3.0,86,0.00,,,0.00,0,weatherlink.com 1.10,2013-03-26 06:48:00,